[[{"header":{"parameterUnit":"m.s-1","parameterCategory":1,"la1":30.2991,"la2":30.254,"lo1":-89.0895,"lo2":-89.0444,"dy":0.0017,"dx":0.0017,"nx":28,"ny":28,"refTime":"2025-03-23T03:00:00:Z","depth":0,"parameterNumber":2,"parameterNumberName":"U-component_of_WINDS"},"data":[0,0,0,0,0,0,0,0,0,0,0,0,0,0,0,0,0,0,0,0,0,0,0,0,0,0,0,0,0,0,0,0,0,0,0,0,0,0,0,0,0,0,0,0,0,0,0,0,0,0,0,0,0,0,0,0,0,0,1.0601,1.0601,0,1.0632,1.0632,1.0633,1.0619,1.0618,1.0617,1.0617,1.065,1.0652,1.0653,0,0,0,0,0,0,0,0,0,0,0,0,0,1.0529,1.0531,1.06,1.0601,1.0601,1.0632,1.0632,1.0633,1.0619,1.0618,1.0617,1.0616,1.0649,1.0651,1.0653,0,0,0,0,0,0,0,0,0,0,0,0,0,1.056,1.0531,1.06,1.0598,1.0598,1.0632,1.0632,1.0633,1.0619,1.0618,1.0617,1.0616,1.0649,1.0651,1.0654,1.0692,0,0,1.0661,1.0662,0,0,0,0,0,0,0,0,1.0559,1.0563,1.0598,1.0598,1.0598,1.062,1.0619,1.0653,1.0619,1.0611,1.0617,1.0615,1.0641,1.0644,1.0653,1.0693,1.0695,1.0661,1.0663,1.0664,1.0664,0,0,0,0,0,0,0,1.0556,1.0562,1.0613,1.0599,1.0599,1.0596,1.0599,1.0626,1.0632,1.0612,1.0611,1.0615,1.0641,1.065,1.0653,1.0695,1.0661,1.0663,1.0665,1.0666,1.0769,1.077,0,0,0,0,0,0,1.0554,1.056,1.0612,1.0614,1.0575,1.0598,1.0601,1.0614,1.0632,1.0634,1.0616,1.0614,1.0647,1.0651,1.0654,1.0701,1.0664,1.0666,1.0667,1.0768,1.077,1.0771,0,0,0,0,0,0,1.0553,1.0559,1.0611,1.0587,1.0593,1.06,1.0615,1.0616,1.0625,1.0635,1.0636,1.0624,1.0646,1.0651,1.0683,1.0702,1.0667,1.0669,1.0766,1.0768,1.077,1.0793,0,0,0,0,0,0,1.0551,1.0559,1.0573,1.0587,1.0594,1.0638,1.0616,1.0617,1.0629,1.0627,1.0643,1.0645,1.0645,1.0679,1.0685,1.0704,1.0671,1.0765,1.0767,1.077,1.0791,1.0796,1.08,0,0,0,0,0,1.0548,1.0578,1.0574,1.058,1.0612,1.0639,1.0643,1.0644,1.0631,1.0645,1.0652,1.0644,1.0698,1.0682,1.0689,1.0709,1.0764,1.0767,1.0769,1.0789,1.0795,1.08,0,0,0,0,0,0,1.0567,1.058,1.0575,1.0611,1.0624,1.0637,1.0656,1.065,1.0667,1.0665,1.0665,1.0668,1.0701,1.0708,1.069,1.0747,1.0729,1.0733,1.0741,1.0747,1.0752,1.075,1.0673,0,0,0,0,0,1.0575,1.0595,1.0606,1.0636,1.0643,1.0648,1.066,1.0659,1.0673,1.0678,1.0687,1.0701,1.0721,1.0734,1.0754,1.0791,1.0795,1.0809,1.0813,1.0817,1.0821,1.0842,1.0848,1.078,1.078,1.078,0,0,1.0592,1.0602,1.0615,1.064,1.065,1.0672,1.0653,1.0676,1.0692,1.0682,1.0712,1.0719,1.0735,1.077,1.0785,1.0777,1.084,1.0821,1.0823,1.0825,1.0845,1.0852,1.0857,1.0782,1.0782,1.0782,0,0,1.0635,1.0644,1.067,1.0681,1.0696,1.0699,1.0705,1.0719,1.0723,1.0753,1.0746,1.0765,1.08,1.0811,1.0822,1.0868,1.0862,1.0874,1.0898,1.0918,1.0924,1.0928,1.0945,1.0951,1.0878,1.0878,1.0878,0,1.0654,1.0686,1.0685,1.0709,1.072,1.0711,1.0738,1.0748,1.0769,1.0777,1.0767,1.081,1.082,1.0858,1.0869,1.0878,1.0885,1.0873,1.0923,1.0928,1.0932,1.0948,1.0955,1.0879,1.0879,1.0879,1.0879,0,1.071,1.0732,1.0751,1.0771,1.0785,1.081,1.0813,1.0827,1.0824,1.0829,1.086,1.0871,1.0892,1.0901,1.0899,1.0939,1.0933,1.0923,1.0904,1.094,1.0955,1.0961,1.0882,1.0881,1.0881,1.088,0,0,1.0765,1.0784,1.0791,1.08,1.0816,1.0833,1.0858,1.0879,1.0891,1.0905,1.0927,1.0956,1.0947,1.0958,1.0958,1.0975,1.1012,1.0963,1.0964,1.0972,1.1056,1.1064,1.1071,1.1007,1.1008,1.1009,1.1055,0,1.0809,1.0853,1.0852,1.0892,1.0913,1.0904,1.0926,1.0938,1.0943,1.0961,1.0966,1.0987,1.0973,1.098,1.0997,1.1004,1.1029,1.1,1.1028,1.1029,1.1024,1.1079,1.1087,1.113,1.1061,1.1062,1.1063,0,1.0867,1.0883,1.0925,1.0938,1.0946,1.0966,1.0984,1.1002,1.1016,1.1018,1.1031,1.1027,1.1053,1.1033,1.1069,1.1049,1.106,1.1065,1.1067,1.107,1.1048,1.1084,1.1143,1.115,1.1072,1.1071,1.107,0,1.0903,1.0936,1.0965,1.0973,1.0989,1.1003,1.101,1.1022,1.1035,1.1051,1.1059,1.1078,1.1089,1.1104,1.1106,1.1091,1.1142,1.1122,1.1145,1.1145,1.1156,1.1155,1.1219,1.1162,1.1162,1.1162,1.1162,0,1.0953,1.0979,1.0982,1.1,1.1029,1.1028,1.1057,1.1063,1.1075,1.1094,1.1088,1.1106,1.1107,1.1126,1.1128,1.1157,1.1162,1.1164,1.1165,1.1165,1.1165,1.1173,1.117,1.1164,1.1163,1.1163,1.1163,0,1.0999,1.1002,1.1034,1.1046,1.1049,1.107,1.1081,1.1098,1.1102,1.1127,1.1132,1.1138,1.116,1.1163,1.1189,1.119,1.1226,1.1223,1.1221,1.1221,1.1243,1.1241,1.1314,1.1323,1.126,1.1261,1.1262,0,1.1031,1.1051,1.1065,1.1077,1.1085,1.1105,1.1117,1.1117,1.113,1.1148,1.1163,1.1184,1.1201,1.1237,1.1244,1.1264,1.1261,1.1285,1.1264,1.1264,1.1262,1.1261,1.1263,1.129,1.129,1.1291,1.1291,0,1.1087,1.1087,1.1105,1.1123,1.1138,1.1153,1.1167,1.1177,1.1179,1.1194,1.1216,1.1229,1.1255,1.1277,1.1296,1.1304,1.1298,1.1298,1.1304,1.1305,1.1304,1.1305,1.1233,1.1296,1.1296,1.1296,1.1295,1.1295,1.1127,1.1145,1.1157,1.1177,1.1187,1.12,1.1217,1.1223,1.1241,1.1262,1.1261,1.1286,1.1299,1.1324,1.1333,1.1353,1.1345,1.1354,1.1356,1.1359,1.1361,1.13,1.1356,1.1356,1.1356,1.1356,1.1356,0,1.1183,1.1191,1.1209,1.1228,1.1244,1.1237,1.1251,1.1265,1.1287,1.1299,1.1316,1.1342,1.1362,1.1371,1.1391,1.1405,1.1403,1.141,1.141,1.1411,1.1367,1.136,1.1412,1.1412,1.1412,1.1412,1.1412,1.1412,1.1214,1.1243,1.1245,1.1279,1.1286,1.131,1.1319,1.1331,1.1341,1.137,1.1387,1.1392,1.1403,1.1424,1.1442,1.1444,1.1452,1.1461,1.1462,1.142,1.1415,1.1409,1.1402,1.1463,1.1463,1.1505,1.1506,1.1506]},{"header":{"parameterUnit":"m.s-1","parameterCategory":1,"la1":30.2991,"la2":30.254,"lo1":-89.0895,"lo2":-89.0444,"dy":0.0017,"dx":0.0017,"nx":28,"ny":28,"refTime":"2025-03-23T03:00:00:Z","depth":0,"parameterNumber":3,"parameterNumberName":"V-component_of_WINDS"},"data":[0,0,0,0,0,0,0,0,0,0,0,0,0,0,0,0,0,0,0,0,0,0,0,0,0,0,0,0,0,0,0,0,0,0,0,0,0,0,0,0,0,0,0,0,0,0,0,0,0,0,0,0,0,0,0,0,0,0,2.059,2.0591,0,2.0725,2.0727,2.0729,2.0776,2.0775,2.0775,2.0774,2.091,2.0914,2.0918,0,0,0,0,0,0,0,0,0,0,0,0,0,2.0368,2.0372,2.059,2.0592,2.0593,2.0725,2.0727,2.0729,2.0776,2.0775,2.0774,2.0774,2.0908,2.0913,2.0918,0,0,0,0,0,0,0,0,0,0,0,0,0,2.048,2.0373,2.059,2.0633,2.0638,2.0725,2.0727,2.0729,2.0776,2.0775,2.0774,2.0774,2.0907,2.0913,2.0919,2.0972,0,0,2.0938,2.094,0,0,0,0,0,0,0,0,2.0474,2.0488,2.0625,2.063,2.0636,2.0733,2.0699,2.0811,2.0776,2.0723,2.0774,2.0773,2.0851,2.0862,2.0889,2.0978,2.0984,2.0938,2.0942,2.0944,2.0946,0,0,0,0,0,0,0,2.0466,2.0483,2.0643,2.0626,2.0633,2.0644,2.0659,2.072,2.079,2.0728,2.0732,2.0747,2.0854,2.0883,2.0893,2.0986,2.0938,2.0943,2.0947,2.095,2.1127,2.1128,0,0,0,0,0,0,2.0451,2.0476,2.0639,2.0647,2.0551,2.0649,2.0666,2.0702,2.0789,2.0802,2.0748,2.0749,2.0873,2.0885,2.0897,2.0967,2.0944,2.095,2.0954,2.1126,2.1127,2.1128,0,0,0,0,0,0,2.0447,2.0466,2.0634,2.0563,2.0585,2.0653,2.0694,2.0706,2.0734,2.0804,2.0817,2.0765,2.0873,2.0889,2.0954,2.0972,2.0953,2.0959,2.1124,2.1126,2.1127,2.1104,0,0,0,0,0,0,2.044,2.0464,2.0485,2.0563,2.0589,2.0688,2.0696,2.0709,2.0745,2.0748,2.0823,2.0835,2.0873,2.0944,2.096,2.098,2.0963,2.1123,2.1125,2.1127,2.1104,2.1105,2.1106,0,0,0,0,0,2.0432,2.0472,2.0486,2.0506,2.0617,2.0689,2.0704,2.0748,2.0746,2.0769,2.0813,2.0833,2.0967,2.095,2.0968,2.0991,2.1122,2.1125,2.1127,2.1103,2.1105,2.1106,0,0,0,0,0,0,2.0394,2.0483,2.05,2.0567,2.062,2.0697,2.0726,2.0748,2.0802,2.0802,2.0854,2.087,2.0931,2.0967,2.0947,2.1047,2.1046,2.1052,2.1022,2.1024,2.1025,2.1015,2.0968,0,0,0,0,0,2.0393,2.0446,2.052,2.0572,2.0598,2.0658,2.069,2.072,2.0777,2.0799,2.0849,2.0903,2.0957,2.0992,2.1046,2.1109,2.1126,2.1133,2.1134,2.1134,2.1139,2.1176,2.118,2.1136,2.1136,2.1135,0,0,2.0393,2.0448,2.0478,2.0566,2.0611,2.0663,2.0676,2.073,2.077,2.0807,2.0873,2.091,2.0974,2.1038,2.1069,2.107,2.1155,2.1137,2.1137,2.1142,2.1179,2.1183,2.1187,2.1137,2.1137,2.1137,0,0,2.0419,2.0466,2.0515,2.056,2.0628,2.0667,2.0679,2.0753,2.078,2.0846,2.0876,2.0922,2.1014,2.1059,2.1093,2.1136,2.1156,2.1151,2.1157,2.1193,2.1196,2.12,2.1216,2.1221,2.1156,2.1156,2.1156,0,2.041,2.0491,2.0537,2.0591,2.0629,2.0666,2.0716,2.0756,2.0838,2.0863,2.0863,2.0981,2.1026,2.1101,2.1112,2.1138,2.1153,2.1144,2.1192,2.1196,2.12,2.1216,2.1222,2.1155,2.1155,2.1155,2.1155,0,2.0476,2.0531,2.0563,2.0642,2.0684,2.0735,2.0788,2.0824,2.0849,2.0888,2.0955,2.101,2.1076,2.1096,2.112,2.1175,2.1174,2.1182,2.1182,2.1203,2.1219,2.1225,2.1154,2.1154,2.1154,2.1154,0,0,2.0483,2.0588,2.0599,2.0636,2.0714,2.0757,2.0809,2.0875,2.0906,2.096,2.1006,2.1083,2.1091,2.113,2.116,2.1191,2.1223,2.1196,2.1198,2.12,2.1288,2.1282,2.1289,2.1236,2.1237,2.1238,2.1283,0,2.0521,2.0618,2.0661,2.0739,2.0791,2.0827,2.0872,2.0924,2.0962,2.101,2.1051,2.1106,2.1112,2.1136,2.1168,2.1212,2.1241,2.1209,2.1279,2.1281,2.1264,2.1297,2.1292,2.1331,2.1289,2.129,2.1291,0,2.0578,2.0635,2.0718,2.079,2.0813,2.0854,2.0918,2.0964,2.1024,2.1049,2.1092,2.1121,2.1177,2.1171,2.1249,2.1226,2.1257,2.1283,2.1286,2.1295,2.1289,2.1309,2.1345,2.1352,2.1301,2.1301,2.13,0,2.0577,2.0673,2.0736,2.0766,2.0852,2.088,2.0916,2.0975,2.1012,2.1067,2.1092,2.1152,2.1186,2.1231,2.1275,2.1267,2.1349,2.1347,2.1372,2.1371,2.1389,2.1388,2.1432,2.1406,2.1406,2.1405,2.1405,0,2.0616,2.0665,2.0737,2.0776,2.0832,2.0881,2.0935,2.0974,2.1026,2.1072,2.1105,2.1148,2.1202,2.1252,2.1286,2.1346,2.136,2.1382,2.1391,2.138,2.1378,2.1402,2.1401,2.1407,2.1407,2.1406,2.1406,0,2.0625,2.0675,2.0746,2.0821,2.0841,2.088,2.0944,2.0982,2.102,2.1079,2.1095,2.1155,2.1215,2.1263,2.134,2.1363,2.1427,2.1436,2.1407,2.1412,2.1435,2.1433,2.1498,2.151,2.1473,2.1474,2.1474,0,2.0647,2.0687,2.0767,2.0801,2.0838,2.0892,2.093,2.0978,2.1017,2.1088,2.1117,2.118,2.1232,2.1326,2.1376,2.1436,2.1447,2.1466,2.1457,2.1445,2.145,2.1448,2.1453,2.1468,2.1468,2.1468,2.1468,0,2.0682,2.0705,2.076,2.0823,2.0868,2.092,2.0973,2.0998,2.1056,2.1097,2.1159,2.12,2.128,2.1342,2.1406,2.1443,2.1466,2.147,2.148,2.147,2.1453,2.1464,2.1412,2.1469,2.1469,2.1469,2.1469,2.1469,2.07,2.0737,2.08,2.086,2.0904,2.0953,2.0993,2.1037,2.109,2.116,2.1184,2.1248,2.1307,2.1397,2.1434,2.1484,2.1486,2.1499,2.1502,2.1505,2.1505,2.1443,2.1496,2.1496,2.1496,2.1496,2.1496,0,2.0738,2.078,2.0835,2.0908,2.0955,2.0972,2.1031,2.1069,2.1126,2.1179,2.123,2.1302,2.1361,2.1416,2.1479,2.1509,2.152,2.1523,2.1523,2.1531,2.1499,2.1486,2.1513,2.1513,2.1513,2.1513,2.1513,2.1513,2.0764,2.0828,2.0858,2.0945,2.0986,2.105,2.1083,2.1127,2.117,2.1249,2.13,2.1335,2.1389,2.1456,2.1511,2.1526,2.1548,2.1549,2.1566,2.1535,2.1533,2.1531,2.1519,2.1553,2.1553,2.1594,2.1595,2.1595]}]]